Location: Vancouver
(49.2500°N, 123.1330°W)
Time: 16:49:18
(UTC-07:00)

Cosmos 2333 Rocket - Visible Passes

Search period start: 31 August 2015 00:00
Search period end: 10 September 2015 00:00
Orbit: 842 x 860 km, 70.8° (Epoch: 31 August)

Date Brightness Start Highest point End Pass type
(mag) Time Alt. Az. Time Alt. Az. Time Alt. Az.
31 Aug 3.5 03:21:06 26° SE 03:22:55 32° ESE 03:27:53 10° NE visible
31 Aug 2.6 05:03:08 19° WSW 05:07:01 50° NW 05:12:32 10° NNE visible
01 Sep 3.4 03:09:29 29° SE 03:10:41 32° ESE 03:15:40 10° NE visible
01 Sep 2.6 04:51:30 23° WSW 04:54:48 50° NW 05:00:19 10° NNE visible
02 Sep 3.4 02:57:49 31° ESE 02:58:28 32° ESE 03:03:27 10° NE visible
02 Sep 2.6 04:39:50 28° WSW 04:42:35 50° NW 04:48:05 10° NNE visible
03 Sep 3.4 02:46:07 32° ESE 02:46:15 32° ESE 02:51:13 10° NE visible
03 Sep 2.6 04:28:08 33° WSW 04:30:21 50° NW 04:35:52 10° NNE visible
04 Sep 3.4 02:34:23 31° E 02:34:23 31° E 02:39:00 10° NE visible
04 Sep 2.6 04:16:24 38° WSW 04:18:08 50° NW 04:23:39 10° NNE visible
04 Sep 4.2 06:00:46 10° WNW 06:03:54 15° NNW 06:06:55 10° N visible
05 Sep 3.5 02:22:37 30° E 02:22:37 30° E 02:26:47 10° NE visible
05 Sep 2.6 04:04:38 42° W 04:05:54 50° NW 04:11:25 10° NNE visible
05 Sep 4.2 05:48:33 10° WNW 05:51:41 15° NNW 05:54:42 10° N visible
06 Sep 3.6 02:10:49 29° E 02:10:49 29° E 02:14:33 10° NE visible
06 Sep 2.5 03:52:50 46° W 03:53:41 50° NW 03:59:12 10° NNE visible
06 Sep 4.2 05:36:20 10° WNW 05:39:28 15° NNW 05:42:28 10° N visible
07 Sep 3.8 01:59:00 27° ENE 01:59:00 27° ENE 02:02:20 10° NE visible
07 Sep 2.5 03:41:01 49° WNW 03:41:28 50° NW 03:46:59 10° NNE visible
07 Sep 4.3 05:24:06 10° WNW 05:27:14 15° NNW 05:30:15 10° N visible
08 Sep 3.9 01:47:10 25° ENE 01:47:10 25° ENE 01:50:07 10° NE visible
08 Sep 2.6 03:29:10 50° WNW 03:29:15 50° NW 03:34:45 10° NNE visible
08 Sep 4.3 05:11:53 10° WNW 05:15:01 15° NNW 05:18:02 10° N visible
09 Sep 4.0 01:35:18 23° ENE 01:35:18 23° ENE 01:37:54 10° NE visible
09 Sep 2.7 03:17:18 49° NW 03:17:18 49° NW 03:22:32 10° NNE visible
09 Sep 4.3 04:59:40 10° WNW 05:02:49 15° NNW 05:05:48 10° N visible
